Date String (YYYY-MM-DD hh:mm:ss) UTC,Instrument flags,Ambient pressure (hPa),Sample flow (lpm),Bypass flow (lpm),Sample temperature (°C),Ambient temperature (°C),ASC tube jacket temperature (°C),LED temperature (°C),Box temperature (°C),Sample RH (%),Span deviation,Mass concentration (μg/m³),Mass concentration (μg/m³),Mass concentration (μg/m³)
DateTimeUTC,F1_M11,P_M11,Q1_M11,Q2_M11,T1_M11,T2_M11,T3_M11,T4_M11,T5_M11,U1_M11,ZSPAN_M11,X0_M11,X2_M11,X1_M11
2022-10-18 12:00:00,,0833.0,5.01,0.00,25.2,23.6,00.0,34.1,27.1,14.1,0000.0,0011.28,0005.29,0004.67
2022-10-18 12:01:00,,0833.1,5.00,0.00,25.2,23.6,00.0,34.1,27.0,14.1,0000.0,0011.37,0005.37,0004.73
2022-10-18 12:02:00,,0833.0,5.00,0.00,25.2,23.6,00.0,34.1,27.0,14.3,0000.9,0011.51,0005.42,0004.80
2022-10-18 12:03:00,,0833.0,5.00,0.00,25.2,23.6,00.0,34.1,27.0,14.5,0001.2,0011.73,0005.56,0004.93
2022-10-18 12:04:00,,0833.0,5.00,0.00,25.2,23.6,00.0,34.1,27.0,14.4,0001.5,0012.51,0005.71,0005.04
2022-10-18 12:05:00,,0833.0,4.99,0.00,25.2,23.6,00.0,34.1,27.0,14.2,0000.3,0012.62,0005.77,0005.09
2022-10-18 12:06:00,,0833.1,4.99,0.00,25.2,23.6,00.0,34.1,27.1,14.2,0000.0,0013.31,0005.82,0005.14
2022-10-18 12:07:00,,0833.0,5.02,0.00,25.2,23.6,00.0,34.1,27.1,14.0,0000.0,0013.00,0005.88,0005.18
2022-10-18 12:08:00,,0833.1,4.99,0.00,25.2,23.6,00.0,34.0,27.1,14.0,0000.0,0012.89,0005.93,0005.21
2022-10-18 12:09:00,,0833.1,5.00,0.00,25.2,23.6,00.0,34.0,27.1,14.2,0000.0,0013.07,0005.99,0005.27
2022-10-18 12:10:00,,0833.1,5.01,0.00,25.2,23.6,00.0,34.0,27.0,13.9,0000.4,0013.10,0005.98,0005.28
2022-10-18 12:11:00,,0833.1,4.99,0.00,25.2,23.6,00.0,34.0,27.1,13.6,0000.2,0013.01,0005.89,0005.21
2022-10-18 12:12:00,,0833.0,5.01,0.00,25.2,23.6,00.0,34.0,27.0,13.5,0000.0,0012.87,0005.81,0005.13
2022-10-18 12:13:00,,0833.0,5.00,0.00,25.2,23.7,00.0,34.0,27.0,13.4,0000.0,0012.77,0005.70,0005.04
2022-10-18 12:14:00,,0833.1,5.00,0.00,25.2,23.7,00.0,34.0,27.0,13.7,0000.0,0013.51,0005.56,0004.92
2022-10-18 12:15:00,,0833.0,5.00,0.00,25.2,23.6,00.0,34.0,27.0,14.1,0000.0,0012.48,0005.48,0004.88
2022-10-18 12:16:00,,0833.0,5.02,0.00,25.2,23.6,00.0,34.0,27.0,14.2,0000.0,0011.79,0005.46,0004.88
2022-10-18 12:17:00,,0833.0,4.99,0.00,25.2,23.6,00.0,34.0,27.0,14.6,0000.0,0011.45,0005.50,0004.94
2022-10-18 12:18:00,,0833.0,5.02,0.00,25.2,23.6,00.0,34.0,27.0,14.7,0000.0,0011.70,0005.56,0005.03
2022-10-18 12:19:00,,0833.0,4.99,0.00,25.2,23.6,00.0,34.0,27.0,14.7,0000.0,0011.40,0005.64,0005.12
2022-10-18 12:20:00,,0833.1,5.00,0.00,25.2,23.6,00.0,34.0,27.0,14.8,0000.0,0011.45,0005.73,0005.18
2022-10-18 12:21:00,,0833.1,4.99,0.00,25.1,23.6,00.0,34.0,27.0,14.8,0000.0,0012.18,0005.90,0005.29
2022-10-18 12:22:00,,0833.0,5.01,0.00,25.1,23.6,00.0,34.0,27.0,14.9,0000.0,0012.70,0006.13,0005.45
2022-10-18 12:23:00,,0833.0,5.00,0.00,25.1,23.6,00.0,34.0,27.0,14.8,0000.0,0013.83,0006.33,0005.61
2022-10-18 12:24:00,,0833.0,4.99,0.00,25.1,23.6,00.0,34.0,27.0,14.8,0000.0,0014.06,0006.55,0005.77
2022-10-18 12:25:00,,0833.1,5.01,0.00,25.1,23.6,00.0,34.0,27.0,14.8,0000.0,0013.34,0006.69,0005.90
2022-10-18 12:26:00,,0833.0,4.99,0.00,25.1,23.6,00.0,34.0,26.9,14.7,0000.0,0013.84,0006.79,0005.96
2022-10-18 12:27:00,,0833.0,5.00,0.00,25.1,23.6,00.0,34.0,27.0,14.7,0001.9,0015.07,0006.86,0006.01
2022-10-18 12:28:00,,0833.0,5.00,0.00,25.1,23.6,00.0,34.0,27.0,14.7,0002.9,0015.51,0006.90,0006.02
2022-10-18 12:29:00,,0833.1,5.00,0.00,25.1,23.5,00.0,34.0,27.0,14.7,0002.7,0015.59,0006.92,0006.00
2022-10-18 12:30:00,,0833.0,5.01,0.00,25.1,23.5,00.0,34.0,27.0,14.7,0002.5,0015.86,0006.92,0005.97
2022-10-18 12:31:00,,0833.0,4.99,0.00,25.1,23.5,00.0,34.0,27.0,14.7,0002.2,0015.66,0006.88,0005.93
2022-10-18 12:32:00,,0833.1,5.01,0.00,25.1,23.5,00.0,34.0,27.0,14.7,0002.0,0014.93,0006.76,0005.88
2022-10-18 12:33:00,,0833.1,5.00,0.00,25.1,23.5,00.0,34.0,26.9,14.7,0002.2,0014.48,0006.65,0005.82
2022-10-18 12:34:00,,0833.0,4.99,0.00,25.1,23.5,00.0,34.0,26.9,14.7,0001.5,0013.40,0006.58,0005.81
2022-10-18 12:35:00,,0833.1,5.00,0.00,25.1,23.4,00.0,34.0,27.0,14.6,0001.5,0013.14,0006.54,0005.78
2022-10-18 12:36:00,,0833.1,4.98,0.00,25.1,23.4,00.0,34.0,26.9,14.4,0001.9,0013.01,0006.53,0005.74
2022-10-18 12:37:00,,0833.1,5.01,0.00,25.1,23.4,00.0,34.0,26.8,14.6,0001.9,0012.79,0006.53,0005.73
2022-10-18 12:38:00,,0833.0,4.99,0.00,25.1,23.4,00.0,33.9,26.9,14.9,0001.6,0012.37,0006.58,0005.78
2022-10-18 12:39:00,,0833.0,4.99,0.00,25.1,23.4,00.0,33.9,26.9,14.9,0001.6,0011.76,0006.61,0005.80
2022-10-18 12:40:00,,0833.0,5.01,0.00,25.0,23.4,00.0,33.9,26.8,14.6,0001.5,0011.74,0006.62,0005.81
2022-10-18 12:41:00,,0833.0,4.98,0.00,25.0,23.4,00.0,33.9,26.8,14.3,0002.0,0011.55,0006.59,0005.81
2022-10-18 12:42:00,,0833.0,5.01,0.00,25.0,23.3,00.0,33.9,26.8,14.3,0001.9,0011.96,0006.56,0005.78
2022-10-18 12:43:00,,0833.1,4.98,0.00,25.0,23.3,00.0,33.9,26.8,14.2,0000.2,0012.30,0006.55,0005.76
2022-10-18 12:44:00,,0833.0,5.02,0.00,25.0,23.3,00.0,33.9,26.8,14.2,0000.0,0012.84,0006.53,0005.73
2022-10-18 12:45:00,,0833.1,4.98,0.00,25.0,23.3,00.0,33.9,26.8,14.1,0000.0,0013.24,0006.47,0005.66
2022-10-18 12:46:00,,0833.1,5.02,0.00,25.0,23.3,00.0,33.9,26.8,14.1,0000.0,0013.40,0006.42,0005.60
2022-10-18 12:47:00,,0833.1,4.99,0.00,25.0,23.3,00.0,33.9,26.8,14.0,0000.0,0013.32,0006.38,0005.56
2022-10-18 12:48:00,,0833.1,5.01,0.00,25.0,23.3,00.0,33.9,26.8,14.0,0000.0,0013.21,0006.28,0005.49
2022-10-18 12:49:00,,0833.0,5.00,0.00,25.0,23.3,00.0,33.8,26.8,14.3,0000.0,0013.07,0006.20,0005.40
2022-10-18 12:50:00,,0833.1,4.98,0.00,25.0,23.3,00.0,33.8,26.8,14.4,0000.0,0012.99,0006.14,0005.32
2022-10-18 12:51:00,,0833.0,5.01,0.00,24.9,23.3,00.0,33.8,26.8,14.2,0000.0,0012.93,0006.07,0005.25
2022-10-18 12:52:00,,0833.1,4.99,0.00,24.9,23.3,00.0,33.8,26.8,14.3,0000.0,0013.04,0006.05,0005.21
2022-10-18 12:53:00,,0833.1,5.00,0.00,24.9,23.2,00.0,33.8,26.7,14.5,0000.0,0013.01,0006.11,0005.22
2022-10-18 12:54:00,,0833.1,5.01,0.00,24.9,23.2,00.0,33.8,26.7,14.7,0000.0,0012.66,0006.18,0005.26
2022-10-18 12:55:00,,0833.0,4.99,0.00,24.9,23.2,00.0,33.8,26.7,14.9,0000.2,0013.23,0006.30,0005.32
2022-10-18 12:56:00,,0833.1,5.02,0.00,24.8,23.1,00.0,33.8,26.6,15.1,0000.9,0013.19,0006.42,0005.40
2022-10-18 12:57:00,,0833.1,4.99,0.00,24.8,23.0,00.0,33.7,26.6,15.2,0000.9,0013.36,0006.54,0005.50
2022-10-18 12:58:00,,0833.1,5.00,0.00,24.8,23.0,00.0,33.7,26.6,15.2,0000.3,0013.83,0006.67,0005.63
2022-10-18 12:59:00,,0833.0,4.99,0.00,24.8,23.0,00.0,33.7,26.6,15.2,0001.2,0014.36,0006.85,0005.76
